Zurück zum Katalog

COSMOS 2251 DEB

AktivLEO
NORAD 35594·DEBRIS·🇷🇺 Russia

Gestartet Jun 16, 1993 von Plesetsk Cosmodrome

Loading…

Nächste Überflüge (nächste 24 Stunden)

TLE

AktuellSource: Space-Track

Epoche: Sep 14, 2026, 10:31 UTC

1 35594U 93036AMM 26257.43854428  .00008243  00000-0  75932-3 0  9993
2 35594  73.8038 265.6099 0030242 316.9679  42.9139 14.94509075922966

Verfolge COSMOS 2251 DEB in Echtzeit mit AllMySat

Download on the App Store